Location: Unspecified
(0.0000°N, 0.0000°E)
Time: 15:47:23
(UTC+00:00)

CSL-04 DEB - Visible Passes

Search period start: 15 June 2025 00:00
Search period end: 25 June 2025 00:00
Orbit: 726 x 1507 km, 99.2° (Epoch: 14 June)

Date Brightness Start Highest point End Pass type
(mag) Time Alt. Az. Time Alt. Az. Time Alt. Az.
15 Jun ? 18:22:37 10° ESE 18:26:14 13° ENE 18:29:40 10° NE visible
15 Jun ? 20:07:25 31° S 20:12:10 77° WSW 20:19:58 10° NNW visible
16 Jun ? 19:27:11 23° SE 19:32:40 54° ENE 19:40:06 10° N visible
16 Jun ? 21:14:51 18° SW 21:18:04 22° WSW 21:23:51 10° WNW visible
17 Jun ? 18:46:57 11° SE 18:53:02 25° ENE 18:58:58 10° NNE visible
17 Jun ? 20:34:38 28° SSW 20:38:50 46° WSW 20:46:10 10° NW visible
18 Jun ? 19:54:24 29° SSE 19:59:27 87° ENE 20:07:01 10° NNW visible
18 Jun ? 21:42:35 10° WSW 21:44:34 11° WSW 21:46:31 10° W visible
19 Jun ? 19:14:11 19° SE 19:19:52 42° ENE 19:26:47 10° N visible
19 Jun ? 21:01:52 20° SW 21:05:24 27° WSW 21:11:40 10° NW visible
20 Jun ? 18:34:56 10° ESE 18:40:10 18° E 18:45:00 10° NE visible
20 Jun ? 20:21:39 29° S 20:26:08 57° WSW 20:33:25 10° NNW visible
21 Jun ? 19:41:26 26° SSE 19:46:40 71° ENE 19:53:56 10° N visible
21 Jun ? 21:29:06 12° SW 21:31:53 15° WSW 21:35:48 10° WNW visible
22 Jun ? 19:01:13 15° SE 19:07:01 33° ENE 19:13:18 10° NNE visible
22 Jun ? 20:48:53 23° SSW 20:52:42 33° WSW 20:59:13 10° NW visible
23 Jun ? 18:23:59 10° ESE 18:27:17 13° E 18:30:23 10° NE visible
23 Jun ? 20:08:41 29° S 20:13:23 71° WSW 20:20:32 10° NNW visible
24 Jun ? 19:28:28 22° SSE 19:33:50 56° ENE 19:40:41 10° N visible
24 Jun ? 21:16:09 15° SW 21:19:11 19° WSW 21:24:01 10° WNW visible
